Total_Precipitation_Accumulation
0.36 0.36 0.37 0.45 0.49 0.50 0.60 0.72 0.70 0.66 0.83 1.32 1.72 2.14 1.61 0.95 0.91 1.28 1.42 1.36 1.45 1.32 1.36 1.70 1.94 2.84 2.93 3.09 2.14 0.87 0.61 0.83 0.96 1.55 0.78 0.54 0.54 0.42 0.36 0.15 0.65 0.80 0.55 0.46 0.62 0.53 0.29
0.37 0.38 0.37 0.46 0.52 0.56 0.67 0.72 0.71 0.75 1.20 2.17 2.04 1.57 0.94 0.64 0.74 0.94 1.28 1.28 1.09 1.02 0.93 1.09 1.71 2.37 1.94 2.50 1.59 0.78 0.64 0.74 0.85 1.30 0.80 0.56 0.68 0.47 0.41 0.25 0.46 0.65 0.67 0.65 1.06 0.71 0.55
0.33 0.37 0.43 0.48 0.52 0.59 0.66 0.69 0.78 1.20 1.88 1.85 1.55 1.09 0.53 0.56 0.74 0.59 0.57 0.76 0.80 0.78 0.74 0.85 1.58 1.67 1.65 2.10 1.04 1.04 0.86 0.92 0.80 0.96 0.92 0.66 0.64 0.80 0.72 0.35 0.28 0.64 0.97 1.18 1.34 1.21 0.74
0.34 0.41 0.44 0.49 0.54 0.59 0.62 0.74 1.29 1.45 1.37 1.31 1.21 0.77 0.49 0.66 0.53 0.48 0.42 0.46 0.47 0.60 0.72 0.99 1.61 1.42 1.92 1.29 0.76 0.89 0.63 0.63 0.81 1.11 1.15 0.98 0.54 0.56 0.90 0.55 0.52 0.67 1.41 1.25 1.53 1.64 1.03
0.41 0.42 0.43 0.44 0.50 0.62 0.80 1.21 1.27 1.00 1.04 1.03 0.86 0.59 0.56 0.49 0.53 0.54 0.47 0.76 0.91 1.00 1.26 1.38 1.36 1.09 1.99 1.56 0.99 0.75 0.39 0.59 1.04 1.42 1.82 1.50 0.91 0.77 0.90 0.93 0.63 0.65 0.97 0.85 0.99 1.30 1.40
0.39 0.35 0.32 0.42 0.60 0.78 1.09 1.12 1.03 0.87 0.78 0.76 0.67 0.55 0.49 0.46 0.55 0.79 0.96 1.00 1.17 1.04 1.49 1.66 1.30 1.38 1.31 1.48 0.94 0.70 0.22 0.68 1.39 1.91 2.61 2.60 1.46 1.01 0.90 0.75 0.46 0.40 0.55 0.55 0.66 0.92 1.32
0.31 0.31 0.38 0.50 0.75 1.09 1.08 1.01 0.91 0.69 0.72 0.72 0.64 0.56 0.57 0.70 0.83 1.20 1.08 1.51 1.98 1.77 1.56 1.51 1.14 0.70 0.71 0.87 1.13 0.62 0.33 1.17 1.93 2.68 2.51 2.10 1.21 0.74 0.70 0.38 0.18 0.08 0.13 0.45 0.50 0.66 0.95
0.31 0.32 0.45 0.68 1.06 1.21 0.95 0.87 0.72 0.74 0.76 0.71 0.60 0.61 0.71 0.86 1.02 1.39 1.29 1.31 1.65 1.60 1.14 0.73 0.65 0.32 0.18 0.37 0.85 0.65 0.72 1.84 2.36 2.61 1.74 1.23 0.60 0.24 0.62 0.53 0.28 0.12 0.20 0.36 0.77 0.54 0.69
0.32 0.38 0.66 0.91 1.27 0.99 0.91 0.70 0.71 0.79 0.78 0.71 0.69 0.73 0.81 0.80 0.96 1.26 0.96 1.04 1.06 1.22 0.99 0.85 1.07 0.54 0.40 0.58 0.61 1.00 1.26 2.34 2.04 1.87 1.12 0.73 0.44 0.28 0.59 0.67 0.28 0.08 0.09 0.22 0.43 0.47 0.48
0.36 0.48 0.71 1.09 0.99 0.91 0.76 0.74 0.92 0.99 0.91 0.94 0.79 0.81 0.85 1.06 1.54 0.94 0.65 0.53 1.15 1.33 1.13 1.53 1.63 1.16 0.63 0.80 1.04 1.04 1.28 1.86 2.02 1.92 1.26 0.97 0.47 0.33 0.54 0.45 0.26 0.14 0.05 0.20 0.22 0.82 0.70
0.48 0.63 0.94 1.09 0.78 0.74 0.68 0.85 1.00 1.02 0.95 0.84 0.90 0.88 1.02 1.42 1.51 0.84 0.59 0.53 1.54 1.58 1.72 1.95 1.68 0.88 0.80 0.88 0.72 0.91 1.27 1.48 1.29 1.39 1.23 1.09 0.60 0.41 0.57 0.37 0.31 0.15 0.06 0.18 0.16 0.90 1.11
0.64 0.81 1.13 0.89 0.82 0.71 0.71 0.80 0.87 0.87 0.89 1.00 1.13 1.17 1.48 1.19 1.00 0.74 0.75 1.02 1.69 1.72 1.90 1.59 1.32 1.14 0.90 0.49 0.30 0.67 1.20 1.11 0.95 1.18 1.19 0.67 0.53 0.84 0.76 0.40 0.18 0.09 0.15 0.19 0.25 0.63 1.30
0.79 0.98 0.94 0.77 0.60 0.63 0.86 0.94 0.92 0.94 1.06 1.13 1.21 1.50 1.57 1.23 0.87 0.90 1.33 1.56 1.57 1.35 1.13 0.92 0.92 0.41 0.22 0.27 0.29 0.75 1.06 0.98 1.21 2.00 1.94 1.48 1.16 1.01 0.69 0.54 0.27 0.14 0.48 1.04 0.89 1.16 0.74
0.85 0.88 0.80 0.68 0.65 0.87 1.00 1.02 1.06 1.15 1.15 1.07 1.56 1.45 1.33 0.95 0.81 1.30 1.87 1.50 1.20 1.11 0.74 0.46 0.14 0.11 0.14 0.13 0.26 0.49 0.87 0.87 0.67 0.78 1.02 1.41 1.17 0.81 0.53 0.38 0.45 0.32 0.48 1.01 0.72 0.60 0.50
0.81 0.78 0.76 0.68 0.86 0.95 1.01 1.04 0.99 1.07 1.23 1.56 1.89 1.80 1.64 1.22 1.06 1.37 1.74 1.27 1.49 0.85 0.49 0.19 0.15 0.20 0.17 0.15 0.20 0.43 0.80 0.54 0.16 0.15 0.41 0.58 0.46 0.35 0.36 0.14 0.38 0.50 0.51 0.38 0.83 0.54 0.64
0.72 0.78 0.74 0.69 0.78 0.98 1.03 1.08 1.16 1.51 1.78 1.97 2.28 2.58 1.75 1.02 1.18 1.64 1.47 1.16 0.78 0.25 0.05 0.04 0.17 0.11 0.06 0.05 0.15 0.23 0.37 0.13 0.08 0.03 0.08 0.12 0.34 0.25 0.29 0.32 0.33 0.40 0.28 0.66 1.28 0.91 0.60
0.64 0.75 0.68 0.75 0.88 1.07 1.25 1.44 1.77 2.16 2.32 2.81 2.19 2.91 2.01 1.18 1.77 1.97 1.33 1.01 0.41 0.07 0.03 0.06 0.05 0.05 0.02 0.02 0.03 0.04 0.04 0.03 0.00 0.00 0.02 0.09 0.16 0.23 0.46 0.40 0.26 0.37 0.58 0.49 0.69 0.61 0.57
0.70 0.73 0.76 0.88 1.03 1.18 1.49 1.54 1.63 2.09 2.52 3.24 3.02 2.48 2.30 1.82 2.25 1.44 0.73 0.65 0.34 0.12 0.05 0.10 0.10 0.04 0.01 0.01 0.01 0.01 0.01 0.02 0.00 0.00 0.01 0.01 0.18 0.27 0.20 0.08 0.08 0.16 0.24 0.29 0.67 0.58 0.38
0.61 0.66 0.77 0.90 1.08 1.16 1.30 1.22 1.21 1.77 2.40 2.74 2.59 2.41 2.79 1.54 0.97 0.60 0.60 0.29 0.22 0.16 0.10 0.13 0.09 0.04 0.01 0.01 0.01 0.01 0.00 0.00 0.00 0.00 0.00 0.05 0.30 0.41 0.37 0.35 0.35 0.32 0.26 0.38 0.42 0.81 0.70
0.70 0.74 0.89 0.99 1.18 1.28 1.30 1.10 1.05 1.54 1.95 2.61 2.20 2.60 3.24 2.26 0.55 0.23 0.31 0.26 0.21 0.09 0.07 0.12 0.14 0.08 0.04 0.02 0.00 0.00 0.00 0.00 0.00 0.00 0.02 0.20 0.40 0.59 0.60 0.53 0.71 0.51 0.28 0.50 0.96 1.20 0.39
0.65 0.81 0.97 1.12 1.18 1.34 1.41 1.47 1.69 1.98 2.11 2.49 1.72 1.19 0.90 1.03 0.46 0.18 0.24 0.22 0.14 0.14 0.11 0.15 0.13 0.09 0.06 0.04 0.01 0.00 0.00 0.01 0.01 0.02 0.13 0.45 0.81 0.91 0.42 0.32 0.62 0.60 0.30 0.42 0.97 0.54 0.45
0.69 0.74 0.90 0.95 1.00 1.04 1.11 1.19 1.57 2.32 2.55 2.08 1.35 0.69 0.31 0.19 0.16 0.14 0.15 0.14 0.10 0.13 0.16 0.15 0.09 0.04 0.05 0.05 0.02 0.01 0.00 0.00 0.01 0.02 0.12 0.33 0.74 0.74 0.46 0.33 0.34 0.33 0.13 0.24 0.54 0.38 0.25
0.69 0.74 0.85 0.94 0.95 1.00 1.03 1.09 1.37 2.12 2.76 2.15 1.32 0.77 0.36 0.31 0.17 0.15 0.08 0.03 0.02 0.11 0.09 0.05 0.06 0.09 0.06 0.04 0.03 0.02 0.01 0.02 0.01 0.02 0.11 0.34 0.50 0.79 0.67 0.40 0.38 0.32 0.08 0.17 0.38 0.32 0.16
0.96 1.12 1.37 1.57 1.63 1.70 1.94 1.84 1.59 1.82 2.36 2.04 1.21 0.77 0.33 0.19 0.08 0.04 0.01 0.01 0.01 0.07 0.10 0.06 0.03 0.08 0.05 0.04 0.05 0.06 0.02 0.02 0.02 0.01 0.03 0.18 0.39 0.74 0.95 0.76 0.75 0.44 0.13 0.16 0.17 0.16 0.10
0.99 1.07 1.17 1.23 1.28 1.36 1.52 1.73 1.83 1.72 1.50 1.27 0.86 0.55 0.27 0.13 0.04 0.04 0.03 0.02 0.03 0.06 0.09 0.13 0.08 0.02 0.05 0.09 0.18 0.22 0.22 0.07 0.00 0.01 0.01 0.05 0.21 0.41 0.44 0.35 0.17 0.11 0.13 0.11 0.08 0.10 0.03
0.74 0.77 0.72 0.71 0.78 0.86 0.83 0.82 1.04 1.15 1.12 0.91 0.78 0.66 0.21 0.08 0.04 0.02 0.03 0.02 0.08 0.16 0.14 0.11 0.11 0.09 0.13 0.25 0.40 0.27 0.13 0.05 0.02 0.01 0.00 0.01 0.06 0.25 0.19 0.19 0.08 0.03 0.02 0.02 0.03 0.03 0.00
0.67 0.62 0.54 0.58 0.70 0.78 0.67 0.62 0.80 0.86 0.71 0.63 0.67 0.50 0.19 0.07 0.01 0.01 0.02 0.02 0.04 0.16 0.20 0.20 0.17 0.23 0.23 0.38 0.39 0.18 0.04 0.00 0.00 0.01 0.03 0.07 0.11 0.16 0.16 0.15 0.01 0.00 0.00 0.01 0.08 0.07 0.00
1.19 0.97 0.97 0.95 1.07 1.04 0.86 0.74 0.88 0.69 0.58 0.50 0.43 0.41 0.24 0.06 0.01 0.01 0.00 0.01 0.06 0.12 0.22 0.25 0.36 0.36 0.44 0.44 0.34 0.15 0.03 0.01 0.00 0.00 0.00 0.03 0.06 0.09 0.09 0.12 0.01 0.00 0.00 0.03 0.02 0.00 0.01
1.17 1.20 1.38 1.45 1.41 1.43 1.14 0.84 0.93 0.69 0.48 0.42 0.32 0.31 0.22 0.08 0.02 0.00 0.00 0.00 0.03 0.09 0.22 0.24 0.37 0.30 0.32 0.43 0.21 0.12 0.04 0.01 0.00 0.01 0.00 0.00 0.00 0.01 0.00 0.00 0.00 0.00 0.00 0.00 0.00 0.00 0.00